STARLINK-5174, 54067

Orbit data source: Space-Track

STARLINK-5174, 54067 is a payload satellite owned by SpaceX/Seattle (US) in LEO that was launched on Thu, 20 Oct 2022 UTC via an FALCON 9 launch vehicle from the Air Force Eastern Test Range (AFETR). Payload-class satellites include a variety of spacecraft equipped with specific instruments for various scientific and technological missions. These include communications satellites like Starlink; space stations such as the ISS; scientific satellites like the Hubble; Earth observation satellites from companies like Planet Labs, Umbra, and HawkEye 360; GPS; miniature CubeSats for education and research; and military/defense satellites.

Loading next visibility...
Identifier
54067, 2022-136S
Orbit
LEO
Country
Flag of USUS
Related business
Manufacturer
SpaceX/Seattle
Mission
Operational Commercial Communications
Bus & Motor
STARLINK, Unknown motor
Mass
305 kg wet, ~290 kg dry
Launch date (UTC)
2022-10-20 (3 years ago)
Launch vehicle
FALCON 9
Launch site
Air Force Eastern Test Range (AFETR)
Object type
Payload
Rocket body
Debris
Shape & HBR
Box + 1 Pan, 10.1 m
Radar Cross Section
13.562 m², Large (>1 m²)

Expand to show TLE details & history
Last TLE update: 14 hours ago

TLE from 14 hours ago
0 STARLINK-5174
1 54067U 22136S   25303.96831275  .00001420  00000-0  10729-3 0  9999
2 54067  53.2170 206.2383 0001296  96.7908 263.3231 15.08832360167261
Epoch: 2025-10-30T23:14Z
TLE epoch observation values (Epoch: 2025-10-30T23:14:22.221Z)
Latitude
-0.00008°
Longitude
178.12616°
Altitude
540.769 km
Speed
7.593 km/s
True Right ascension
13h 44m 57s
True Declination
0° 00' 00"
Sunlit
Object was in daylight at epoch
Visualization orbit readout
Latitude
Unknown
Longitude
Unknown
Altitude
Unknown
Speed
Unknown
Apparent Right ascension
Unknown
Apparent Declination
Unknown
Sunlit
N/A
Visualization observer readout
Local Sidereal Time
08:39:59
Azimuth
Unknown
Elevation
Unknown
Doppler factor
Unknown
Orbital elements
Apogee altitude
540.908 km
Perigee altitude
539.115 km
Semi-major axis
6,918.149 km
Eccentricity
0.00013
Inclination
53.217°
RAAN
206.2383°
Arg. of periapsis
96.7908°
True anomaly
263.30835°
Mean anomaly
263.3231°
Eccentric anomaly
263.31572°
Mean motion
3.77188 °/min
Orbital period
95.44 mins
BSTAR
0.00010729
Loading maneuver chart data...
Computing Atmospheric mass density...
Loading historical data...
Loading historical data...
Loading historical data...
Loading historical data...
Loading historical data...
Loading historical data...
Loading historical data...

Documentation

Showing up to 5 results
|